Weather History for Duluth, MN

Change the Weather History Date:

Monday, July 1, 2013

  Actual Average Record
Temperature  
Mean Temperature 64 °F 64 °F  
Max Temperature 73 °F 75 °F 99 °F (1883)
Min Temperature 54 °F 54 °F 35 °F (1988)
Degree Days  
Heating Degree Days 1 3  
Month to date heating degree days 1 3  
Since 1 June heating degree days 147 182  
Since 1 July heating degree days 1 3  
Cooling Degree Days 0 2  
Month to date cooling degree days 0 2  
Year to date cooling degree days 54 36  
Since 1 June cooling degree days 53 32  
Growing Degree Days 15 (Base 50)    
Moisture  
Dew Point 46 °F    
Average Humidity 56    
Maximum Humidity 72    
Minimum Humidity 39    
Precipitation  
Precipitation 0.00 in 0.15 in 2.09 in (1953)
Month to date precipitation 0.00 0.15  
Year to date precipitation 17.88 13.30  
Snow  
Snow 0.00 in 0.00 in T in (1953)
Month to date snowfall 0.0 0.0  
Since 1 June snowfall 0.0 0.0  
Since 1 July snowfall 0.0 0.0  
Snow Depth 0.00 in    
Sea Level Pressure  
Sea Level Pressure 30.22 in    
Wind  
Wind Speed 8 mph (ENE)    
Max Wind Speed 18 mph    
Max Gust Speed 23 mph    
Visibility 10 miles    
Events      
T = Trace of Precipitation, MM = Missing Value Source: NWS Daily Summary

Daily Weather History Graph

Daily Weather History Graph

Search for Another Location

Airport:

Trip Planner

Search our weather history database for the weather conditions in past years. The results will help you decide how hot, cold, wet, or windy it might be!

Date:

Astronomy

Jul. 01, 2013 Rise Set
Actual Time 5:18 AM CDT 9:06 PM CDT
Civil Twilight 4:39 AM CDT 9:45 PM CDT
Nautical Twilight 3:45 AM CDT 10:39 PM CDT
Astronomical Twilight 2:28 AM CDT 11:55 PM CDT
Moon 1:03 AM CDT (7/1) 3:09 PM CDT (7/1)
Length of Visible Light 17h 06m
Length of Day
15h 48m
Waning Crescent, 35% of the Moon is Illuminated
Jul 1
Waning Crescent
Jul 8
New
Jul 15
First Quarter
Jul 22
Full
Jul 29
Last Quarter

Hourly Weather History & Observations

Time (CDT) Temp. Dew Point Humidity Pressure Visibility Wind Dir Wind Speed Gust Speed Precip Events Conditions
12:55 AM 64.0 °F 53.1 °F 67% 30.14 in 10.0 mi North 5.8 mph - N/A   Clear
1:55 AM 64.0 °F 52.0 °F 65% 30.14 in 10.0 mi North 5.8 mph - N/A   Clear
2:55 AM 63.0 °F 53.1 °F 70% 30.15 in 10.0 mi North 4.6 mph - N/A   Clear
3:55 AM 63.0 °F 53.1 °F 70% 30.16 in 10.0 mi North 4.6 mph - N/A   Scattered Clouds
4:55 AM 62.1 °F 51.1 °F 67% 30.17 in 10.0 mi NNE 3.5 mph - N/A   Scattered Clouds
5:55 AM 63.0 °F 48.9 °F 60% 30.19 in 10.0 mi East 5.8 mph - N/A   Scattered Clouds
6:55 AM 63.0 °F 48.0 °F 58% 30.21 in 10.0 mi East 8.1 mph - N/A   Partly Cloudy
7:55 AM 64.0 °F 46.9 °F 54% 30.23 in 10.0 mi East 10.4 mph - N/A   Partly Cloudy
8:55 AM 64.9 °F 46.0 °F 50% 30.25 in 10.0 mi East 11.5 mph - N/A   Partly Cloudy
9:55 AM 66.9 °F 48.0 °F 51% 30.25 in 10.0 mi East 8.1 mph - N/A   Partly Cloudy
10:55 AM 66.9 °F 48.0 °F 51% 30.25 in 10.0 mi ESE 6.9 mph - N/A   Partly Cloudy
11:55 AM 68.0 °F 48.0 °F 49% 30.26 in 10.0 mi SE 9.2 mph - N/A   Clear
12:55 PM 71.1 °F 48.9 °F 45% 30.26 in 10.0 mi East 9.2 mph - N/A   Partly Cloudy
1:55 PM 72.0 °F 48.9 °F 44% 30.26 in 10.0 mi ENE 11.5 mph - N/A   Partly Cloudy
2:55 PM 71.1 °F 46.9 °F 42% 30.25 in 10.0 mi East 11.5 mph 23.0 mph N/A   Partly Cloudy
3:55 PM 72.0 °F 46.9 °F 41% 30.24 in 10.0 mi East 13.8 mph 21.9 mph N/A   Partly Cloudy
4:55 PM 72.0 °F 48.9 °F 44% 30.24 in 10.0 mi East 6.9 mph - N/A   Partly Cloudy
5:55 PM 70.0 °F 46.9 °F 44% 30.23 in 10.0 mi ESE 9.2 mph - N/A   Partly Cloudy
6:55 PM 68.0 °F 43.0 °F 40% 30.23 in 10.0 mi East 10.4 mph - N/A   Clear
7:55 PM 64.9 °F 39.9 °F 40% 30.23 in 10.0 mi East 9.2 mph - N/A   Clear
8:55 PM 61.0 °F 37.9 °F 42% 30.23 in 10.0 mi East 8.1 mph - N/A   Clear
9:55 PM 57.9 °F 37.9 °F 47% 30.24 in 10.0 mi East 6.9 mph - N/A   Clear
10:55 PM 57.0 °F 32.0 °F 39% 30.23 in 10.0 mi East 5.8 mph - N/A   Clear
11:55 PM 55.0 °F 34.0 °F 45% 30.22 in 10.0 mi East 5.8 mph - N/A   Clear